Overview Statistics Trail Chart Weather Telemetry Raw packets
 

This is the latest recevied weather packets stored in our database for station/object KG5APU. If no packets are shown the sender has not sent any weather packets the latest 10 day(s).

<< 39 40 41 42 43 44 45 >>
Time Temp. Humidity Pressure Rain* Wind** Luminosity Snow
1788037104 37.78° C 35% 1015.5 hPa 0 mm - 585 W/m² -
1788036502 38.33° C 34% 1015.9 hPa 0 mm - 611 W/m² -
1788035898 37.78° C 35% 1015.8 hPa 0 mm - 634 W/m² -
1788035292 38.33° C 33% 1015.9 hPa 0 mm - 652 W/m² -
1788034690 37.22° C 34% 1016.1 hPa 0 mm - 679 W/m² -
1788034088 38.33° C 34% 1016.1 hPa 0 mm - 696 W/m² -
1788033486 38.33° C 35% 1016.5 hPa 0 mm - 709 W/m² -
1788032882 37.78° C 36% 1016.6 hPa 0 mm - 725 W/m² -
1788032277 38.33° C 37% 1016.8 hPa 0 mm - 735 W/m² -
1788031673 37.78° C 38% 1017 hPa 0 mm - 748 W/m² -
1788031074 37.78° C 39% 1017.1 hPa 0 mm - 758 W/m² -
1788030472 37.22° C 38% 1017.4 hPa 0 mm - 766 W/m² -
1788029876 37.22° C 38% 1017.4 hPa 0 mm - 771 W/m² -
1788029264 36.67° C 41% 1017.5 hPa 0 mm - 774 W/m² -
1788028663 36.67° C 42% 1017.5 hPa 0 mm - 778 W/m² -
1788028059 36.67° C 43% 1017.6 hPa 0 mm - 780 W/m² -
1788027454 36.67° C 43% 1018 hPa 0 mm - 779 W/m² -
1788026854 36.11° C 44% 1018 hPa 0 mm - 776 W/m² -
1788026249 36.11° C 45% 1018.1 hPa 0 mm - 772 W/m² -
1788025649 36.11° C 46% 1018.5 hPa 0 mm - 768 W/m² -
1788025050 35.56° C 46% 1018.2 hPa 0 mm - 760 W/m² -
1788024446 35.56° C 45% 1018.4 hPa 0 mm - 750 W/m² -
1788023842 35.56° C 45% 1018.7 hPa 0 mm - 738 W/m² -
1788023238 35.56° C 50% 1018.7 hPa 0 mm - 722 W/m² -
1788022635 35° C 49% 1018.8 hPa 0 mm - 703 W/m² -

* Rain latest hour (hover to see other rain measurements)
** Current wind speed in m/s (hover to see current wind gust speed)